This is the latest recevied weather packets stored in our database for station/object KE2HEH. If no packets are shown the sender has not sent any weather packets the latest 10 day(s).
| Time | Temp. | Humidity | Pressure | Rain* | Wind** | Luminosity | Snow |
|---|---|---|---|---|---|---|---|
| 1778162382 | 12.78° C | 78% | 1011.5 hPa | 0 mm | - | 310 W/m² | - |
| 1778162079 | 12.78° C | 77% | 1011.5 hPa | 0 mm | - | 367 W/m² | - |
| 1778161776 | 12.78° C | 78% | 1011.4 hPa | 0 mm | - | 381 W/m² | - |
| 1778161473 | 12.78° C | 78% | 1011.3 hPa | 0 mm | - | 354 W/m² | - |
| 1778161169 | 12.78° C | 79% | 1011.6 hPa | 0 mm | - | 319 W/m² | - |
| 1778160865 | 12.22° C | 80% | 1011.6 hPa | 0 mm | - | 372 W/m² | - |
| 1778160564 | 12.22° C | 81% | 1011.6 hPa | 0 mm | - | 407 W/m² | - |
| 1778160259 | 11.67° C | 82% | 1011.4 hPa | 0 mm | - | 669 W/m² | - |
| 1778159956 | 11.67° C | 82% | 1011.3 hPa | 0 mm | - | 272 W/m² | - |
| 1778159653 | 11.67° C | 83% | 1011.9 hPa | 0 mm | - | 293 W/m² | - |
| 1778159350 | 11.67° C | 83% | 1011.8 hPa | 0 mm | - | 299 W/m² | - |
| 1778159047 | 11.67° C | 84% | 1011.9 hPa | 0 mm | - | 268 W/m² | - |
| 1778158746 | 11.11° C | 84% | 1011.8 hPa | 0 mm | - | 253 W/m² | - |
| 1778158443 | 11.11° C | 85% | 1012.1 hPa | 0 mm | - | 175 W/m² | - |
| 1778158140 | 11.11° C | 85% | 1012.1 hPa | 0 mm | - | 117 W/m² | - |
| 1778157836 | 11.11° C | 85% | 1011.7 hPa | 0 mm | - | 101 W/m² | - |
| 1778157535 | 11.11° C | 86% | 1011.7 hPa | 0 mm | - | 80 W/m² | - |
| 1778157232 | 11.11° C | 86% | 1011.6 hPa | 0 mm | - | 82 W/m² | - |
| 1778156928 | 11.11° C | 86% | 1011.7 hPa | 0 mm | - | 77 W/m² | - |
| 1778156623 | 11.11° C | 86% | 1011.6 hPa | 0 mm | - | 75 W/m² | - |
| 1778156320 | 10.56° C | 87% | 1011.4 hPa | 0 mm | - | 71 W/m² | - |
| 1778156015 | 10.56° C | 88% | 1011.8 hPa | 0 mm | - | 90 W/m² | - |
| 1778155712 | 10.56° C | 88% | 1011.4 hPa | 0 mm | - | 100 W/m² | - |
| 1778155409 | 10.56° C | 89% | 1011.1 hPa | 0 mm | - | 131 W/m² | - |
| 1778155105 | 10.56° C | 89% | 1011.4 hPa | 0 mm | - | 70 W/m² | - |
* Rain latest hour (hover to see other rain measurements)
** Current wind speed in m/s (hover to see current wind gust speed)